Wainwright, AK

11:13 AM AKDT on September 25, 2017 (GMT -0800)
Wainwright

Weather History for PAWI - August, 2014

Change the Weather History Date:

Sunday, August 24, 2014

  Actual Average (PABR) Record (PABR)
Temperature  
Mean Temperature 37 °F -  
Max Temperature 41 °F 43 °F 70 °F (1979)
Min Temperature 33 °F 32 °F 24 °F (1944)
Degree Days  
Heating Degree Days 28    
Moisture  
Dew Point 32 °F    
Average Humidity 83    
Maximum Humidity 93    
Minimum Humidity 73    
Precipitation  
Precipitation 0.00 in - - ()
Sea Level Pressure  
Sea Level Pressure 30.00 in    
Wind  
Wind Speed 9 mph (NE)    
Max Wind Speed 15 mph    
Max Gust Speed -    
Visibility 9 miles    
Events      
Averages and records for this station are not official NWS values.
T = Trace of Precipitation, MM = Missing Value Source: NWS Daily Summary

Daily Weather History Graph

Daily Weather History Graph

Search for Another Location

Airport or City:

Trip Planner

Search our weather history database for the weather conditions in past years. The results will help you decide how hot, cold, wet, or windy it might be!

Date:

Astronomy

Aug. 24, 2014 Rise Set
Actual Time 6:15 AM AKDT 11:05 PM AKDT
Civil Twilight 4:38 AM AKDT 12:39 AM AKDT
Nautical Twilight Sun does not set Sun does not set
Astronomical Twilight Sun does not set Sun does not set
Moon 5:47 AM AKDT (8/24) 9:58 PM AKDT (8/24)
Length of Visible Light 20h 01m
Length of Day
16h 49m
Waning Crescent, 1% of the Moon is Illuminated
Aug 24
Waning Crescent
Aug 25
New
Sep 2
First Quarter
Sep 8
Full
Sep 15
Last Quarter

Hourly Weather History & Observations

Time (AKDT) Temp. Windchill Dew Point Humidity Pressure Visibility Wind Dir Wind Speed Gust Speed Precip Events Conditions
12:53 AM 36.0 °F 28.0 °F 33.1 °F 89% 30.08 in 10.0 mi NW 11.5 mph - N/A   Overcast
1:50 AM 33.8 °F 26.4 °F 32.0 °F 93% 30.08 in 4.0 mi NNW 9.2 mph - N/A   Overcast
1:53 AM 34.0 °F 27.2 °F 32.0 °F 92% 30.09 in 4.0 mi NNW 8.1 mph - N/A   Overcast
2:53 AM 34.0 °F 28.0 °F 30.9 °F 89% 30.09 in 10.0 mi NW 6.9 mph - N/A   Overcast
4:53 AM 34.0 °F 27.2 °F 30.9 °F 89% 30.09 in 7.0 mi NNW 8.1 mph - N/A   Overcast
5:53 AM 34.0 °F 26.6 °F 30.9 °F 89% 30.08 in 10.0 mi NNW 9.2 mph - N/A   Overcast
6:53 AM 34.0 °F 28.0 °F 30.9 °F 89% 30.08 in 10.0 mi NNW 6.9 mph - N/A   Overcast
8:53 AM 34.0 °F 27.2 °F 30.9 °F 89% 30.07 in 10.0 mi NNE 8.1 mph - N/A   Overcast
9:53 AM 34.0 °F 27.2 °F 30.9 °F 89% 30.06 in 10.0 mi NE 8.1 mph - N/A   Overcast
10:50 AM 33.8 °F 27.7 °F 30.2 °F 87% 30.05 in 7.0 mi NNE 6.9 mph - N/A   Overcast
10:53 AM 34.0 °F 28.0 °F 30.9 °F 89% 30.05 in 8.0 mi NE 6.9 mph - N/A   Overcast
11:53 AM 36.0 °F 31.1 °F 30.9 °F 82% 30.04 in 10.0 mi NE 5.8 mph - N/A   Overcast
12:45 PM 37.4 °F 31.4 °F 32.0 °F 81% 30.02 in 10.0 mi ENE 8.1 mph - N/A   Overcast
12:53 PM 37.0 °F 33.3 °F 30.9 °F 79% 30.02 in 10.0 mi East 4.6 mph - N/A   Overcast
2:53 PM 39.0 °F 33.4 °F 32.0 °F 76% 29.99 in 10.0 mi ENE 8.1 mph - N/A   Overcast
3:53 PM 39.9 °F 33.4 °F 32.0 °F 73% 29.97 in 10.0 mi ENE 10.4 mph - N/A   Overcast
4:53 PM 39.9 °F 32.9 °F 32.0 °F 73% 29.96 in 10.0 mi NE 11.5 mph - N/A   Overcast
6:53 PM 39.9 °F 32.9 °F 33.1 °F 77% 29.92 in 10.0 mi NE 11.5 mph - N/A   Overcast
7:53 PM 41.0 °F 33.1 °F 33.1 °F 73% 29.91 in 10.0 mi ENE 15.0 mph - N/A   Overcast
8:53 PM 39.9 °F 32.1 °F 33.1 °F 77% 29.90 in 10.0 mi ENE 13.8 mph - N/A   Overcast
9:53 PM 39.9 °F 32.9 °F 34.0 °F 79% 29.88 in 10.0 mi ENE 11.5 mph - N/A   Overcast
10:26 PM 39.2 °F 31.2 °F 33.8 °F 81% 29.87 in 10.0 mi ENE 13.8 mph - N/A   Overcast
10:53 PM 39.0 °F 31.4 °F 33.1 °F 79% 29.88 in 10.0 mi ENE 12.7 mph - N/A   Overcast
11:53 PM 39.0 °F 31.4 °F 33.1 °F 79% 29.87 in 10.0 mi ENE 12.7 mph - N/A   Overcast